Time,TemperatureF,DewpointF,PressureIn,WindDirection,WindDirectionDegrees,WindSpeedMPH,WindSpeedGustMPH,Humidity,HourlyPrecipIn,Conditions,Clouds,dailyrainin,SoftwareType,DateUTC
2013-05-16 00:02:00,66.0,63.0,30.01,SW,217,0.0,0.0,91,0.00,,,0.00,,2013-05-16 05:02:00,
2013-05-16 00:12:00,66.0,63.0,30.01,SW,217,0.0,0.0,91,0.00,,,0.00,,2013-05-16 05:12:00,
2013-05-16 00:22:00,66.0,64.0,30.00,South,176,0.0,1.0,92,0.00,,,0.00,,2013-05-16 05:22:00,
2013-05-16 00:32:00,65.0,63.0,30.01,South,176,0.0,0.0,92,0.00,,,0.00,,2013-05-16 05:32:00,
2013-05-16 00:42:00,65.0,63.0,30.01,South,176,0.0,0.0,92,0.00,,,0.00,,2013-05-16 05:42:00,
2013-05-16 00:52:00,65.0,63.0,30.01,South,176,0.0,0.0,93,0.00,,,0.00,,2013-05-16 05:52:00,
2013-05-16 01:01:00,64.0,62.0,30.00,South,176,0.0,0.0,93,0.00,,,0.00,,2013-05-16 06:01:00,
2013-05-16 01:12:00,64.0,62.0,30.00,South,176,0.0,0.0,93,0.00,,,0.00,,2013-05-16 06:12:00,
2013-05-16 01:22:00,64.0,62.0,29.99,South,176,0.0,0.0,94,0.00,,,0.00,,2013-05-16 06:22:00,
2013-05-16 01:33:00,63.0,61.0,29.99,South,176,0.0,0.0,94,0.00,,,0.00,,2013-05-16 06:33:00,
2013-05-16 01:43:00,63.0,61.0,29.99,South,176,0.0,0.0,94,0.00,,,0.00,,2013-05-16 06:43:00,
2013-05-16 01:53:00,63.0,61.0,29.98,South,176,0.0,0.0,94,0.00,,,0.00,,2013-05-16 06:53:00,
2013-05-16 02:02:00,64.0,63.0,29.98,South,176,0.0,0.0,95,0.00,,,0.00,,2013-05-16 07:02:00,
2013-05-16 02:12:00,64.0,63.0,29.98,South,176,0.0,0.0,95,0.00,,,0.00,,2013-05-16 07:12:00,
2013-05-16 02:24:00,64.0,62.0,29.97,SSE,156,0.0,1.0,94,0.00,,,0.00,,2013-05-16 07:24:00,
2013-05-16 02:34:00,65.0,63.0,29.96,SSE,153,0.0,1.0,94,0.00,,,0.00,,2013-05-16 07:34:00,
2013-05-16 02:44:00,65.0,63.0,29.96,SSE,153,0.0,1.0,94,0.00,,,0.00,,2013-05-16 07:44:00,
2013-05-16 02:54:00,65.0,63.0,29.98,SSE,153,0.0,0.0,94,0.00,,,0.00,,2013-05-16 07:54:00,
2013-05-16 03:03:00,65.0,63.0,29.98,SSE,153,0.0,0.0,94,0.00,,,0.00,,2013-05-16 08:03:00,
2013-05-16 03:13:00,65.0,63.0,29.98,SSE,153,0.0,0.0,94,0.00,,,0.00,,2013-05-16 08:13:00,
2013-05-16 03:24:00,65.0,63.0,29.98,SSE,153,0.0,0.0,94,0.00,,,0.00,,2013-05-16 08:24:00,
2013-05-16 03:34:00,64.0,62.0,29.97,SSE,153,0.0,0.0,94,0.00,,,0.00,,2013-05-16 08:34:00,
2013-05-16 03:44:00,64.0,62.0,29.97,SSE,153,0.0,0.0,94,0.00,,,0.00,,2013-05-16 08:44:00,
2013-05-16 03:55:00,64.0,62.0,29.97,SSE,153,0.0,0.0,94,0.00,,,0.00,,2013-05-16 08:55:00,
2013-05-16 04:04:00,64.0,63.0,29.96,SSE,154,0.0,0.0,95,0.00,,,0.00,,2013-05-16 09:04:00,
2013-05-16 04:14:00,64.0,63.0,29.96,SSE,153,0.0,0.0,95,0.00,,,0.00,,2013-05-16 09:14:00,
2013-05-16 04:24:00,64.0,63.0,29.96,SSE,153,0.0,0.0,95,0.00,,,0.00,,2013-05-16 09:24:00,
2013-05-16 04:35:00,64.0,63.0,29.96,SSE,153,0.0,0.0,95,0.00,,,0.00,,2013-05-16 09:35:00,
2013-05-16 04:45:00,64.0,63.0,29.96,SSE,153,0.0,0.0,95,0.00,,,0.00,,2013-05-16 09:45:00,
2013-05-16 04:55:00,64.0,63.0,29.96,SSE,153,0.0,0.0,95,0.00,,,0.00,,2013-05-16 09:55:00,
2013-05-16 05:05:00,64.0,63.0,29.96,ESE,110,0.0,0.0,95,0.00,,,0.00,,2013-05-16 10:05:00,
2013-05-16 05:15:00,64.0,63.0,29.96,ESE,110,0.0,0.0,95,0.00,,,0.00,,2013-05-16 10:15:00,
2013-05-16 05:24:00,64.0,63.0,29.96,SE,142,0.0,1.0,95,0.00,,,0.00,,2013-05-16 10:24:00,
2013-05-16 05:36:00,64.0,63.0,29.96,SSW,206,0.0,1.0,95,0.00,,,0.00,,2013-05-16 10:36:00,
2013-05-16 05:45:00,64.0,63.0,29.96,SSW,206,0.0,1.0,95,0.00,,,0.00,,2013-05-16 10:45:00,
2013-05-16 05:56:00,65.0,64.0,29.96,SSW,203,0.0,0.0,95,0.00,,,0.00,,2013-05-16 10:56:00,
2013-05-16 06:05:00,64.0,63.0,29.96,South,191,0.0,0.0,95,0.00,,,0.00,,2013-05-16 11:05:00,
2013-05-16 06:14:00,64.0,63.0,29.96,South,191,0.0,0.0,95,0.00,,,0.00,,2013-05-16 11:14:00,
2013-05-16 06:25:00,64.0,63.0,29.95,South,191,0.0,0.0,95,0.00,,,0.00,,2013-05-16 11:25:00,
2013-05-16 06:35:00,64.0,63.0,29.95,South,178,0.0,1.0,95,0.00,,,0.00,,2013-05-16 11:35:00,
2013-05-16 06:46:00,64.0,63.0,29.95,South,178,0.0,1.0,95,0.00,,,0.00,,2013-05-16 11:46:00,
2013-05-16 06:57:00,64.0,63.0,29.96,South,176,0.0,0.0,95,0.00,,,0.00,,2013-05-16 11:57:00,
2013-05-16 07:06:00,64.0,63.0,29.98,South,177,0.0,0.0,95,0.00,,,0.00,,2013-05-16 12:06:00,
2013-05-16 07:13:00,64.0,63.0,29.98,South,177,0.0,0.0,95,0.00,,,0.00,,2013-05-16 12:13:00,
2013-05-16 07:23:00,65.0,64.0,29.98,South,177,0.0,0.0,95,0.00,,,0.00,,2013-05-16 12:23:00,
2013-05-16 07:34:00,66.0,65.0,30.00,South,177,0.0,0.0,95,0.00,,,0.00,,2013-05-16 12:34:00,
2013-05-16 07:45:00,66.0,65.0,30.00,South,177,0.0,0.0,95,0.00,,,0.00,,2013-05-16 12:45:00,
2013-05-16 07:53:00,66.0,65.0,30.00,South,177,0.0,0.0,95,0.00,,,0.00,,2013-05-16 12:53:00,
2013-05-16 08:04:00,66.0,65.0,30.00,South,177,0.0,0.0,95,0.00,,,0.00,,2013-05-16 13:04:00,
2013-05-16 08:12:00,66.0,65.0,30.00,South,177,0.0,0.0,95,0.00,,,0.00,,2013-05-16 13:12:00,
2013-05-16 08:27:00,68.0,66.0,30.01,South,178,0.0,0.0,94,0.00,,,0.00,,2013-05-16 13:27:00,
2013-05-16 08:35:00,69.0,67.0,30.00,South,177,0.0,0.0,93,0.00,,,0.00,,2013-05-16 13:35:00,
2013-05-16 08:44:00,69.0,67.0,30.00,South,177,0.0,0.0,93,0.00,,,0.00,,2013-05-16 13:44:00,
2013-05-16 08:55:00,70.0,68.0,29.99,ESE,104,0.0,1.0,93,0.00,,,0.00,,2013-05-16 13:55:00,
2013-05-16 09:05:00,70.0,68.0,29.99,ESE,104,0.0,1.0,93,0.00,,,0.00,,2013-05-16 14:05:00,
2013-05-16 09:16:00,70.0,68.0,29.99,ESE,104,0.0,1.0,93,0.00,,,0.00,,2013-05-16 14:16:00,
2013-05-16 09:23:00,72.0,69.0,29.99,SW,235,0.0,4.0,89,0.00,,,0.00,,2013-05-16 14:23:00,
2013-05-16 09:37:00,73.0,69.0,29.99,SE,131,0.0,4.0,87,0.00,,,0.00,,2013-05-16 14:37:00,
2013-05-16 09:47:00,73.0,69.0,29.99,SE,131,0.0,4.0,87,0.00,,,0.00,,2013-05-16 14:47:00,
2013-05-16 09:56:00,75.0,71.0,29.98,SW,232,0.0,3.0,86,0.00,,,0.00,,2013-05-16 14:56:00,
2013-05-16 10:08:00,75.0,68.0,29.98,SSE,158,1.0,6.0,79,0.00,,,0.00,,2013-05-16 15:08:00,
2013-05-16 10:17:00,75.0,68.0,29.98,SSE,158,1.0,6.0,79,0.00,,,0.00,,2013-05-16 15:17:00,
2013-05-16 10:28:00,76.0,68.0,29.96,ESE,116,0.0,4.0,77,0.00,,,0.00,,2013-05-16 15:28:00,
2013-05-16 10:40:00,78.0,69.0,29.96,SSW,198,1.0,7.0,73,0.00,,,0.00,,2013-05-16 15:40:00,
2013-05-16 10:50:00,79.0,68.0,29.96,SSE,148,1.0,5.0,70,0.00,,,0.00,,2013-05-16 15:50:00,
2013-05-16 11:00:00,79.0,68.0,29.96,SSE,148,1.0,5.0,70,0.00,,,0.00,,2013-05-16 16:00:00,
2013-05-16 11:09:00,81.0,68.0,29.95,SSW,193,1.0,4.0,64,0.00,,,0.00,,2013-05-16 16:09:00,
2013-05-16 11:19:00,81.0,68.0,29.95,SSW,193,1.0,4.0,64,0.00,,,0.00,,2013-05-16 16:19:00,
2013-05-16 11:30:00,81.0,68.0,29.96,WSW,240,0.0,6.0,65,0.00,,,0.00,,2013-05-16 16:30:00,
2013-05-16 11:40:00,82.0,-99.9,29.96,ESE,120,0.0,4.0,62,0.00,,,0.00,,2013-05-16 16:40:00,
2013-05-16 11:50:00,82.0,68.0,29.96,ESE,120,0.0,4.0,62,0.00,,,0.00,,2013-05-16 16:50:00,
2013-05-16 12:01:00,84.0,68.0,29.95,East,86,1.0,7.0,59,0.00,,,0.00,,2013-05-16 17:01:00,
2013-05-16 12:10:00,83.0,68.0,29.95,West,269,1.0,5.0,61,0.00,,,0.00,,2013-05-16 17:10:00,
2013-05-16 12:20:00,83.0,68.0,29.95,West,269,1.0,5.0,61,0.00,,,0.00,,2013-05-16 17:20:00,
2013-05-16 12:30:00,83.0,67.0,29.94,SW,226,0.0,3.0,59,0.00,,,0.00,,2013-05-16 17:30:00,
2013-05-16 12:40:00,82.0,68.0,29.94,SSW,204,0.0,4.0,63,0.00,,,0.00,,2013-05-16 17:40:00,
2013-05-16 12:50:00,81.0,-99.9,29.94,SE,134,0.0,6.0,63,0.00,,,0.00,,2013-05-16 17:50:00,
2013-05-16 13:00:00,-999.0,-99.9,29.94,SE,134,0.0,6.0,63,0.00,,,0.00,,2013-05-16 18:00:00,
2013-05-16 13:10:00,81.0,67.0,29.94,SSE,156,1.0,6.0,63,0.00,,,0.00,,2013-05-16 18:10:00,
2013-05-16 13:20:00,81.0,67.0,29.94,SSE,156,1.0,6.0,63,0.00,,,0.00,,2013-05-16 18:20:00,
2013-05-16 13:30:00,-999.0,-99.9,29.94,ESE,122,2.0,8.0,63,0.00,,,0.00,,2013-05-16 18:30:00,
2013-05-16 13:40:00,-999.0,-99.9,29.93,SE,129,0.0,6.0,64,0.00,,,0.00,,2013-05-16 18:40:00,
2013-05-16 13:50:00,-999.0,-99.9,29.93,SE,129,0.0,6.0,64,0.00,,,0.00,,2013-05-16 18:50:00,
2013-05-16 14:00:00,-999.0,-99.9,29.93,SW,222,0.0,4.0,61,0.00,,,0.00,,2013-05-16 19:00:00,
2013-05-16 14:10:00,85.0,69.0,29.93,North,4,1.0,8.0,58,0.00,,,0.00,,2013-05-16 19:10:00,
2013-05-16 14:20:00,85.0,69.0,29.93,North,4,1.0,8.0,58,0.00,,,0.00,,2013-05-16 19:20:00,
2013-05-16 14:30:00,85.0,67.0,29.93,SSW,197,1.0,7.0,55,0.00,,,0.00,,2013-05-16 19:30:00,
2013-05-16 14:40:00,85.0,-99.9,29.92,SSW,205,1.0,7.0,56,0.00,,,0.00,,2013-05-16 19:40:00,
2013-05-16 14:50:00,-999.0,-99.9,29.92,SSW,205,1.0,7.0,56,0.00,,,0.00,,2013-05-16 19:50:00,
2013-05-16 15:00:00,-999.0,-99.9,29.92,ESE,122,1.0,5.0,57,0.00,,,0.00,,2013-05-16 20:00:00,
2013-05-16 15:10:00,-999.0,-99.9,29.92,South,190,1.0,9.0,56,0.00,,,0.00,,2013-05-16 20:10:00,
2013-05-16 15:20:00,85.0,-99.9,29.92,South,190,1.0,9.0,56,0.00,,,0.00,,2013-05-16 20:20:00,
2013-05-16 15:30:00,86.0,66.0,29.91,East,101,1.0,5.0,52,0.00,,,0.00,,2013-05-16 20:30:00,
2013-05-16 15:40:00,-999.0,-99.9,29.91,South,172,1.0,7.0,53,0.00,,,0.00,,2013-05-16 20:40:00,
2013-05-16 15:50:00,86.0,67.0,29.91,South,172,1.0,7.0,53,0.00,,,0.00,,2013-05-16 20:50:00,
2013-05-16 16:00:00,85.0,-99.9,29.90,SE,131,0.0,6.0,53,0.00,,,0.00,,2013-05-16 21:00:00,
2013-05-16 16:10:00,85.0,-99.9,29.89,ESE,117,0.0,5.0,56,0.00,,,0.00,,2013-05-16 21:10:00,
2013-05-16 16:20:00,85.0,-99.9,29.89,ESE,117,0.0,5.0,56,0.00,,,0.00,,2013-05-16 21:20:00,
2013-05-16 16:29:00,85.0,68.0,29.89,East,94,1.0,6.0,57,0.00,,,0.00,,2013-05-16 21:29:00,
2013-05-16 16:38:00,84.0,68.0,29.88,SE,143,0.0,6.0,59,0.00,,,0.00,,2013-05-16 21:38:00,
2013-05-16 16:50:00,84.0,-99.9,29.88,SE,143,0.0,6.0,59,0.00,,,0.00,,2013-05-16 21:50:00,
2013-05-16 17:00:00,-999.0,-99.9,29.89,SE,132,1.0,8.0,61,0.00,,,0.00,,2013-05-16 22:00:00,
2013-05-16 17:08:00,82.0,68.0,29.89,SW,222,1.0,7.0,63,0.00,,,0.00,,2013-05-16 22:08:00,
2013-05-16 17:21:00,82.0,68.0,29.89,SW,222,1.0,7.0,63,0.00,,,0.00,,2013-05-16 22:21:00,
2013-05-16 17:30:00,81.0,67.0,29.88,SSW,195,1.0,8.0,63,0.00,,,0.00,,2013-05-16 22:30:00,
2013-05-16 17:40:00,80.0,66.0,29.89,SE,138,1.0,6.0,63,0.00,,,0.00,,2013-05-16 22:40:00,
2013-05-16 17:50:00,80.0,66.0,29.89,SE,138,1.0,6.0,63,0.00,,,0.00,,2013-05-16 22:50:00,
2013-05-16 18:01:00,80.0,67.0,29.89,SE,125,1.0,6.0,65,0.00,,,0.00,,2013-05-16 23:01:00,
2013-05-16 18:06:00,80.0,67.0,29.89,SSW,208,1.0,7.0,65,0.00,,,0.00,,2013-05-16 23:06:00,
2013-05-16 18:16:00,80.0,67.0,29.89,SSW,208,1.0,7.0,65,0.00,,,0.00,,2013-05-16 23:16:00,
2013-05-16 18:24:00,80.0,68.0,29.89,SW,214,1.0,3.0,68,0.00,,,0.00,,2013-05-16 23:24:00,
2013-05-16 18:35:00,79.0,67.0,29.88,WSW,240,1.0,6.0,67,0.00,,,0.00,,2013-05-16 23:35:00,
2013-05-16 18:45:00,79.0,67.0,29.88,WSW,240,1.0,6.0,67,0.00,,,0.00,,2013-05-16 23:45:00,
2013-05-16 18:54:00,79.0,68.0,29.88,SE,131,0.0,6.0,69,0.00,,,0.00,,2013-05-16 23:54:00,
2013-05-16 19:02:00,78.0,67.0,29.88,East,100,1.0,5.0,70,0.00,,,0.00,,2013-05-17 00:02:00,
2013-05-16 19:13:00,78.0,67.0,29.88,East,100,1.0,5.0,70,0.00,,,0.00,,2013-05-17 00:13:00,
2013-05-16 19:22:00,78.0,68.0,29.88,South,185,0.0,4.0,72,0.00,,,0.00,,2013-05-17 00:22:00,
2013-05-16 19:33:00,77.0,68.0,29.88,SSE,158,0.0,4.0,74,0.00,,,0.00,,2013-05-17 00:33:00,
2013-05-16 19:43:00,77.0,68.0,29.88,SSE,158,0.0,4.0,74,0.00,,,0.00,,2013-05-17 00:43:00,
2013-05-16 19:53:00,76.0,67.0,29.88,SSE,167,0.0,7.0,75,0.00,,,0.00,,2013-05-17 00:53:00,
2013-05-16 20:03:00,75.0,67.0,29.89,SSW,205,0.0,3.0,77,0.00,,,0.00,,2013-05-17 01:03:00,
2013-05-16 20:12:00,75.0,67.0,29.89,SSW,205,0.0,3.0,77,0.00,,,0.00,,2013-05-17 01:12:00,
2013-05-16 20:23:00,75.0,67.0,29.89,SSW,205,0.0,3.0,77,0.00,,,0.00,,2013-05-17 01:23:00,
2013-05-16 20:32:00,74.0,68.0,29.89,SSE,158,0.0,1.0,82,0.00,,,0.00,,2013-05-17 01:32:00,
2013-05-16 20:43:00,74.0,68.0,29.89,SSE,158,0.0,1.0,82,0.00,,,0.00,,2013-05-17 01:43:00,
2013-05-16 20:52:00,74.0,69.0,29.90,South,172,0.0,2.0,84,0.00,,,0.00,,2013-05-17 01:52:00,
2013-05-16 21:02:00,73.0,69.0,29.90,SW,222,0.0,1.0,86,0.00,,,0.00,,2013-05-17 02:02:00,
2013-05-16 21:11:00,73.0,69.0,29.90,SW,222,0.0,1.0,86,0.00,,,0.00,,2013-05-17 02:11:00,
2013-05-16 21:22:00,73.0,69.0,29.90,SE,129,0.0,1.0,87,0.00,,,0.00,,2013-05-17 02:22:00,
2013-05-16 21:32:00,72.0,68.0,29.90,SSE,162,0.0,3.0,88,0.00,,,0.00,,2013-05-17 02:32:00,
2013-05-16 21:42:00,72.0,68.0,29.90,SSE,162,0.0,3.0,88,0.00,,,0.00,,2013-05-17 02:42:00,
2013-05-16 21:53:00,72.0,68.0,29.90,SSE,162,0.0,3.0,88,0.00,,,0.00,,2013-05-17 02:53:00,
2013-05-16 22:02:00,72.0,69.0,29.91,South,175,0.0,1.0,90,0.00,,,0.00,,2013-05-17 03:02:00,
2013-05-16 22:11:00,72.0,69.0,29.91,South,175,0.0,1.0,90,0.00,,,0.00,,2013-05-17 03:11:00,
2013-05-16 22:22:00,72.0,69.0,29.91,SSW,197,0.0,4.0,90,0.00,,,0.00,,2013-05-17 03:22:00,
2013-05-16 22:34:00,72.0,69.0,29.92,SSW,212,0.0,2.0,90,0.00,,,0.00,,2013-05-17 03:34:00,
2013-05-16 22:43:00,72.0,69.0,29.92,SSW,212,0.0,2.0,90,0.00,,,0.00,,2013-05-17 03:43:00,
2013-05-16 22:53:00,72.0,69.0,29.92,SSE,160,0.0,2.0,91,0.00,,,0.00,,2013-05-17 03:53:00,
2013-05-16 23:02:00,72.0,70.0,29.92,South,191,0.0,1.0,92,0.00,,,0.00,,2013-05-17 04:02:00,
2013-05-16 23:13:00,72.0,70.0,29.92,South,191,0.0,1.0,92,0.00,,,0.00,,2013-05-17 04:13:00,
2013-05-16 23:23:00,72.0,70.0,29.92,SSE,149,0.0,1.0,92,0.00,,,0.00,,2013-05-17 04:23:00,
2013-05-16 23:33:00,72.0,70.0,29.92,SSE,148,0.0,1.0,92,0.00,,,0.00,,2013-05-17 04:33:00,
2013-05-16 23:43:00,72.0,70.0,29.92,SSE,148,0.0,1.0,92,0.00,,,0.00,,2013-05-17 04:43:00,
2013-05-16 23:53:00,71.0,69.0,29.92,ESE,122,0.0,1.0,92,0.00,,,0.00,,2013-05-17 04:53:00,